Radioactive Concentration measured by Seawater Radiation Monitor near Fukushima Daiichi Nuclear Power Station
Date,Time,Cs137(Bq/L),Cs134(Bq/L),Total β(Bq/L)
2020/04/04,00:00,0.39,ND,17
2020/04/04,00:10,0.38,ND,18
2020/04/04,00:20,0.37,ND,16
2020/04/04,00:30,0.36,ND,18
2020/04/04,00:40,0.35,ND,17
2020/04/04,00:50,0.36,ND,18
2020/04/04,01:00,0.35,ND,17
2020/04/04,01:10,0.34,ND,16
2020/04/04,01:20,0.34,ND,16
2020/04/04,01:30,0.33,ND,15
2020/04/04,01:40,0.33,ND,14
2020/04/04,01:50,0.31,ND,14
2020/04/04,02:00,0.32,ND,16
2020/04/04,02:10,0.31,ND,16
2020/04/04,02:20,0.32,ND,18
2020/04/04,02:30,0.33,ND,19
2020/04/04,02:40,0.33,ND,18
2020/04/04,02:50,0.35,ND,18
2020/04/04,03:00,0.34,ND,17
2020/04/04,03:10,0.35,ND,17
2020/04/04,03:20,0.33,ND,17
2020/04/04,03:30,0.33,ND,18
2020/04/04,03:40,0.34,ND,21
2020/04/04,03:50,0.32,ND,21
2020/04/04,04:00,0.30,ND,21
2020/04/04,04:10,0.29,ND,21
2020/04/04,04:20,0.30,ND,21
2020/04/04,04:30,0.32,ND,20
2020/04/04,04:40,0.33,ND,21
2020/04/04,04:50,0.35,ND,20
2020/04/04,05:00,0.38,ND,19
2020/04/04,05:10,0.40,ND,21
2020/04/04,05:20,0.40,ND,20
2020/04/04,05:30,0.38,ND,18
2020/04/04,05:40,0.37,ND,20
2020/04/04,05:50,0.33,ND,22
2020/04/04,06:00,0.33,ND,24
2020/04/04,06:10,0.30,ND,24
2020/04/04,06:20,0.32,ND,24
2020/04/04,06:30,0.34,ND,23
2020/04/04,06:40,0.34,ND,21
2020/04/04,06:50,0.37,ND,18
2020/04/04,07:00,0.39,ND,18
2020/04/04,07:10,0.38,ND,16
2020/04/04,07:20,0.36,ND,17
2020/04/04,07:30,0.34,ND,18
2020/04/04,07:40,0.34,ND,17
2020/04/04,07:50,0.34,ND,19
2020/04/04,08:00,0.33,ND,16
2020/04/04,08:10,0.33,ND,17
2020/04/04,08:20,0.34,ND,16
2020/04/04,08:30,0.35,ND,16
2020/04/04,08:40,0.36,ND,16
2020/04/04,08:50,0.32,ND,15
2020/04/04,09:00,0.33,ND,17
2020/04/04,09:10,0.35,ND,17
2020/04/04,09:20,0.34,ND,18
2020/04/04,09:30,0.34,ND,17
2020/04/04,09:40,0.35,ND,19
2020/04/04,09:50,0.38,ND,20
2020/04/04,10:00,0.36,ND,22
2020/04/04,10:10,0.36,ND,23
2020/04/04,10:20,0.36,ND,20
2020/04/04,10:30,0.37,ND,20
2020/04/04,10:40,0.36,ND,22
2020/04/04,10:50,0.36,ND,22
2020/04/04,11:00,0.35,ND,22
2020/04/04,11:10,0.34,ND,22
2020/04/04,11:20,0.35,ND,25
2020/04/04,11:30,0.33,ND,26
2020/04/04,11:40,0.30,ND,24
2020/04/04,11:50,0.30,ND,23
2020/04/04,12:00,0.32,ND,21
2020/04/04,12:10,0.30,ND,23
2020/04/04,12:20,0.30,ND,23
2020/04/04,12:30,0.31,ND,22
2020/04/04,12:40,0.31,ND,24
2020/04/04,12:50,0.30,ND,25
2020/04/04,13:00,0.31,ND,26
2020/04/04,13:10,0.31,ND,24
2020/04/04,13:20,0.29,ND,24
2020/04/04,13:30,0.28,ND,24
2020/04/04,13:40,0.30,ND,23
2020/04/04,13:50,0.30,ND,21
2020/04/04,14:00,0.29,ND,20
2020/04/04,14:10,0.29,ND,18
2020/04/04,14:20,0.29,ND,19
2020/04/04,14:30,0.30,ND,20
2020/04/04,14:40,0.29,ND,20
2020/04/04,14:50,0.29,ND,21
2020/04/04,15:00,0.30,ND,22
2020/04/04,15:10,0.32,ND,22
2020/04/04,15:20,0.33,ND,22
2020/04/04,15:30,0.34,ND,22
2020/04/04,15:40,0.35,ND,20
2020/04/04,15:50,0.35,ND,21
2020/04/04,16:00,0.35,ND,24
2020/04/04,16:10,0.33,ND,22
2020/04/04,16:20,0.34,ND,22
2020/04/04,16:30,0.33,ND,20
2020/04/04,16:40,0.32,ND,24
2020/04/04,16:50,0.29,ND,26
2020/04/04,17:00,0.30,ND,25
2020/04/04,17:10,0.31,ND,25
2020/04/04,17:20,0.31,ND,24
2020/04/04,17:30,0.30,ND,22
2020/04/04,17:40,0.30,ND,23
2020/04/04,17:50,0.30,ND,20
2020/04/04,18:00,0.31,ND,16
2020/04/04,18:10,0.31,ND,18
2020/04/04,18:20,0.31,ND,21
2020/04/04,18:30,0.33,ND,21
2020/04/04,18:40,0.33,ND,17
2020/04/04,18:50,0.35,ND,17
2020/04/04,19:00,0.36,ND,22
2020/04/04,19:10,0.36,ND,21
2020/04/04,19:20,0.35,ND,22
2020/04/04,19:30,0.33,ND,24
2020/04/04,19:40,0.32,ND,27
2020/04/04,19:50,0.33,ND,27
2020/04/04,20:00,0.34,ND,26
2020/04/04,20:10,0.35,ND,24
2020/04/04,20:20,0.35,ND,24
2020/04/04,20:30,0.37,ND,24
2020/04/04,20:40,0.38,ND,22
2020/04/04,20:50,0.37,ND,23
2020/04/04,21:00,0.36,ND,22
2020/04/04,21:10,0.37,ND,20
2020/04/04,21:20,0.36,ND,18
2020/04/04,21:30,0.35,ND,16
2020/04/04,21:40,0.35,ND,15
2020/04/04,21:50,0.36,ND,13
2020/04/04,22:00,0.36,ND,14
2020/04/04,22:10,0.36,ND,17
2020/04/04,22:20,0.38,ND,17
2020/04/04,22:30,0.39,ND,17
2020/04/04,22:40,0.39,ND,20
2020/04/04,22:50,0.39,ND,19
2020/04/04,23:00,0.37,ND,21
2020/04/04,23:10,0.36,ND,21
2020/04/04,23:20,0.37,ND,20
2020/04/04,23:30,0.36,ND,24
2020/04/04,23:40,0.35,ND,21
2020/04/04,23:50,0.35,ND,22
